Погода в Чажайском Лесоучастке

Россия / Удмуртская Республика     58°19′53″N   52°42′53″E
темп.,
°C
ветер,
м/с
пор.,
м/с
влажн.,
%
обл.,
%
осадки,
мм/ч
давл.,
гПа
погр.,
м
8 мая, сб
сб801:00+11ююз41177100 0.1 1014445
04:00+9зюз3788100 0.1 1015317
07:00+10з238693 0.0 1016409
10:00+9ссз2487100 0.3 1018415
13:00+9с2485100 0.7 1018323
16:00+11св2272100 0.7 1018443
19:00+11всв11764 0.0 101746
22:00+7всв11925 0.0 101710
9 мая, вс
вс901:00+7вюв22935 0.0 101720
04:00+7юв24960 0.0 101773
07:00+11юв36847 0.0 1016237
10:00+17ююв4654100 0.0 1016988
13:00+19ююв46424 0.0 10161871
16:00+21ююв463710 0.0 10152301
19:00+18юв4105193 0.0 1015444
22:00+13юв3116787 0.0 1017231
10 мая, пн
пн1001:00+14ююв3136392 0.0 1017383
04:00+14ююв31263100 0.0 1018407
07:00+14ююв3866100 0.0 1019314
10:00+15ююв2367100 0.1 1020373
13:00+15юз2667100 0.1 1020524
16:00+11сз4892100 3.9 1023528
19:00+9сз2694100 3.0 1025444
22:00+8ссз499089 3.7 1027461
11 мая, вт
вт1101:00+6с488766 0.0 1029447
04:00+4ссв39910 0.0 1030318
07:00+7ссв38765 0.0 1032392
10:00+11ссв354960 0.0 1032981
13:00+15с23365 0.0 10311275
16:00+16ссз233788 0.0 10311360
19:00+14ссз115444 0.0 103111
22:00+10сз116313 0.0 103210
12 мая, ср
ср1201:00+9зсз116977 0.0 103210
04:00+8зсз1172100 0.0 103210
07:00+11зсз136479 0.0 1033131
10:00+17зсз23515 0.0 1032682
13:00+21з23450 0.0 10311311
16:00+22з334326 0.0 10301498
19:00+19з2363100 0.0 102964
22:00+14зсз227836 0.0 103014